Regional Weather Roundup
Issued by NWS

Home | Current Version | Previous Version | Text Only | Print | Product List | Glossary Off
Versions: 1 2 3 4 5 6 7 8 9 10 11 12 13 14 15 16 17 18 19 20 21 22 23 24 25 26 27 28

000
ASUS45 KBOI 221110
RWRID
WEATHER ROUNDUP FOR IDAHO
NATIONAL WEATHER SERVICE BOISE ID
500 AM MDT TUE APR 22 2014

NOTE: "FAIR" INDICATES FEW OR NO CLOUDS BELOW 12000 FEET
WITH NO SIGNIFICANT WEATHER AND/OR OBSTRUCTIONS TO VISIBILITY

IDZ012-014-221200-
SOUTHWEST IDAHO


CITY           SKY/WX    TMP DP  RH WIND       PRES   REMARKS
BOISE          CLOUDY    54  33  45 NW6       29.72R
CALDWELL       CLOUDY    50  32  50 NW12      29.75R
MOUNTAIN HOME  MOCLDY    54  29  38 NE7       29.71F
$$

IDZ016-017-221200-
SOUTHCENTRAL IDAHO


CITY           SKY/WX    TMP DP  RH WIND       PRES   REMARKS
BURLEY         CLOUDY    52  40  63 CALM      29.77F
JEROME         CLOUDY    57  34  41 E10       29.77F
TWIN FALLS     CLOUDY    56  34  43 S7        29.77F
$$

IDZ019>023-221200-
SOUTHEAST IDAHO


CITY           SKY/WX    TMP DP  RH WIND       PRES   REMARKS
IDAHO FALLS    CLOUDY    56  40  55 E14       29.86F
POCATELLO      MOCLDY    59  38  45 SE14      29.82F
REXBURG        CLOUDY    52  39  61 SE15G22   29.88F
$$

IDZ006-010-011-018-031-032-221200-
CENTRAL IDAHO MOUNTAINS


CITY           SKY/WX    TMP DP  RH WIND       PRES   REMARKS
MCCALL         CLOUDY    39  30  70 E3        29.72F
HAILEY         CLOUDY    48  30  49 NW5       29.83F
STANLEY          N/A     33  27  78 CALM      29.83F
SALMON         PTCLDY    39  25  56 CALM      29.74F
CHALLIS        PTCLDY    45  22  40 CALM      29.77F
$$

IDZ002-004-006-007-026-221200-
NORTHERN IDAHO


CITY           SKY/WX    TMP DP  RH WIND       PRES   REMARKS
LEWISTON       CLOUDY    53  40  61 NW16      29.70R
LOWELL           N/A     42  38  85 N5        29.73S
COEUR D`ALENE  CLOUDY    46  37  71 SE8       29.70S
MULLAN PASS    CLOUDY    40  25  55 SE9       29.71F WCI  34
$$



USA.gov is the U.S. government's official web portal to all federal, state and local government web resources and services.